#datetime,building,power
2023-05-18T00:00:00,mfh,42.03
2023-05-18T00:01:00,mfh,42.53
2023-05-18T00:02:00,mfh,42.44
2023-05-18T00:03:00,mfh,42.44
2023-05-18T00:04:00,mfh,42.43
2023-05-18T00:05:00,mfh,42.50
2023-05-18T00:06:00,mfh,42.48
2023-05-18T00:07:00,mfh,41.69
2023-05-18T00:08:00,mfh,41.77
2023-05-18T00:09:00,mfh,41.76
2023-05-18T00:10:00,mfh,42.47
2023-05-18T00:11:00,mfh,42.53
2023-05-18T00:12:00,mfh,42.53
2023-05-18T00:13:00,mfh,42.52
2023-05-18T00:14:00,mfh,42.41
2023-05-18T00:15:00,mfh,42.84
2023-05-18T00:16:00,mfh,41.68
2023-05-18T00:17:00,mfh,42.41
2023-05-18T00:18:00,mfh,41.93
2023-05-18T00:19:00,mfh,42.54
2023-05-18T00:20:00,mfh,42.96
2023-05-18T00:21:00,mfh,42.58
2023-05-18T00:22:00,mfh,42.71
2023-05-18T00:23:00,mfh,42.72
2023-05-18T00:24:00,mfh,42.23
2023-05-18T00:25:00,mfh,42.05
2023-05-18T00:26:00,mfh,41.86
2023-05-18T00:27:00,mfh,42.43
2023-05-18T00:28:00,mfh,42.54
2023-05-18T00:29:00,mfh,42.53
2023-05-18T00:30:00,mfh,42.53
2023-05-18T00:31:00,mfh,42.64
2023-05-18T00:32:00,mfh,42.59
2023-05-18T00:33:00,mfh,42.63
2023-05-18T00:34:00,mfh,42.11
2023-05-18T00:35:00,mfh,42.78
2023-05-18T00:36:00,mfh,41.97
2023-05-18T00:37:00,mfh,41.84
2023-05-18T00:38:00,mfh,43.38
2023-05-18T00:39:00,mfh,42.60
2023-05-18T00:40:00,mfh,42.54
2023-05-18T00:41:00,mfh,42.52
2023-05-18T00:42:00,mfh,42.66
2023-05-18T00:43:00,mfh,43.23
2023-05-18T00:44:00,mfh,42.15
2023-05-18T00:45:00,mfh,42.10
2023-05-18T00:46:00,mfh,43.47
2023-05-18T00:47:00,mfh,42.75
2023-05-18T00:48:00,mfh,42.53
2023-05-18T00:49:00,mfh,42.10
2023-05-18T00:50:00,mfh,41.88
2023-05-18T00:51:00,mfh,41.70
2023-05-18T00:52:00,mfh,40.91
2023-05-18T00:53:00,mfh,39.40
2023-05-18T00:54:00,mfh,40.42
2023-05-18T00:55:00,mfh,41.33
2023-05-18T00:56:00,mfh,40.87
2023-05-18T00:57:00,mfh,40.81
2023-05-18T00:58:00,mfh,41.39
2023-05-18T00:59:00,mfh,41.63
2023-05-18T01:00:00,mfh,40.79
2023-05-18T01:01:00,mfh,38.44
2023-05-18T01:02:00,mfh,38.54
2023-05-18T01:03:00,mfh,38.54
2023-05-18T01:04:00,mfh,38.79
2023-05-18T01:05:00,mfh,39.48
2023-05-18T01:06:00,mfh,39.43
2023-05-18T01:07:00,mfh,40.10
2023-05-18T01:08:00,mfh,39.35
2023-05-18T01:09:00,mfh,39.52
2023-05-18T01:10:00,mfh,39.60
2023-05-18T01:11:00,mfh,39.18
2023-05-18T01:12:00,mfh,39.22
2023-05-18T01:13:00,mfh,39.80
2023-05-18T01:14:00,mfh,39.99
2023-05-18T01:15:00,mfh,39.95
2023-05-18T01:16:00,mfh,40.58
2023-05-18T01:17:00,mfh,40.14
2023-05-18T01:18:00,mfh,39.90
2023-05-18T01:19:00,mfh,39.82
2023-05-18T01:20:00,mfh,38.99
2023-05-18T01:21:00,mfh,39.09
2023-05-18T01:22:00,mfh,39.51
2023-05-18T01:23:00,mfh,39.50
2023-05-18T01:24:00,mfh,39.73
2023-05-18T01:25:00,mfh,40.06
2023-05-18T01:26:00,mfh,39.57
2023-05-18T01:27:00,mfh,39.62
2023-05-18T01:28:00,mfh,40.58
2023-05-18T01:29:00,mfh,38.87
2023-05-18T01:30:00,mfh,38.81
2023-05-18T01:31:00,mfh,38.90
2023-05-18T01:32:00,mfh,39.52
2023-05-18T01:33:00,mfh,39.43
2023-05-18T01:34:00,mfh,39.53
2023-05-18T01:35:00,mfh,39.56
2023-05-18T01:36:00,mfh,39.54
2023-05-18T01:37:00,mfh,39.55
2023-05-18T01:38:00,mfh,38.93
2023-05-18T01:39:00,mfh,38.95
2023-05-18T01:40:00,mfh,39.46
2023-05-18T01:41:00,mfh,39.45
2023-05-18T01:42:00,mfh,39.61
2023-05-18T01:43:00,mfh,40.27
2023-05-18T01:44:00,mfh,40.86
2023-05-18T01:45:00,mfh,40.23
2023-05-18T01:46:00,mfh,39.74
2023-05-18T01:47:00,mfh,39.54
2023-05-18T01:48:00,mfh,38.98
2023-05-18T01:49:00,mfh,39.04
2023-05-18T01:50:00,mfh,39.61
2023-05-18T01:51:00,mfh,39.64
2023-05-18T01:52:00,mfh,39.51
2023-05-18T01:53:00,mfh,39.52
2023-05-18T01:54:00,mfh,40.27
2023-05-18T01:55:00,mfh,39.58
2023-05-18T01:56:00,mfh,38.89
2023-05-18T01:57:00,mfh,38.97
2023-05-18T01:58:00,mfh,39.11
2023-05-18T01:59:00,mfh,39.75
2023-05-18T02:00:00,mfh,39.99
2023-05-18T02:01:00,mfh,40.03
2023-05-18T02:02:00,mfh,40.05
2023-05-18T02:03:00,mfh,40.06
2023-05-18T02:04:00,mfh,40.01
2023-05-18T02:05:00,mfh,39.27
2023-05-18T02:06:00,mfh,39.20
2023-05-18T02:07:00,mfh,38.97
2023-05-18T02:08:00,mfh,39.15
2023-05-18T02:09:00,mfh,40.30
2023-05-18T02:10:00,mfh,40.24
2023-05-18T02:11:00,mfh,40.48
2023-05-18T02:12:00,mfh,40.61
2023-05-18T02:13:00,mfh,40.53
2023-05-18T02:14:00,mfh,39.82
2023-05-18T02:15:00,mfh,39.85
2023-05-18T02:16:00,mfh,39.81
2023-05-18T02:17:00,mfh,39.89
2023-05-18T02:18:00,mfh,39.52
2023-05-18T02:19:00,mfh,39.53
2023-05-18T02:20:00,mfh,39.65
2023-05-18T02:21:00,mfh,40.51
2023-05-18T02:22:00,mfh,39.68
2023-05-18T02:23:00,mfh,39.63
2023-05-18T02:24:00,mfh,38.89
2023-05-18T02:25:00,mfh,39.01
2023-05-18T02:26:00,mfh,39.00
2023-05-18T02:27:00,mfh,39.59
2023-05-18T02:28:00,mfh,39.91
2023-05-18T02:29:00,mfh,39.42
2023-05-18T02:30:00,mfh,39.51
2023-05-18T02:31:00,mfh,39.52
2023-05-18T02:32:00,mfh,40.03
2023-05-18T02:33:00,mfh,38.83
2023-05-18T02:34:00,mfh,39.35
2023-05-18T02:35:00,mfh,38.84
2023-05-18T02:36:00,mfh,39.46
2023-05-18T02:37:00,mfh,39.44
2023-05-18T02:38:00,mfh,39.45
2023-05-18T02:39:00,mfh,39.44
2023-05-18T02:40:00,mfh,39.71
2023-05-18T02:41:00,mfh,39.59
2023-05-18T02:42:00,mfh,39.42
2023-05-18T02:43:00,mfh,38.80
2023-05-18T02:44:00,mfh,39.57
2023-05-18T02:45:00,mfh,39.33
2023-05-18T02:46:00,mfh,39.57
2023-05-18T02:47:00,mfh,39.60
2023-05-18T02:48:00,mfh,39.62
2023-05-18T02:49:00,mfh,39.71
2023-05-18T02:50:00,mfh,39.86
2023-05-18T02:51:00,mfh,39.22
2023-05-18T02:52:00,mfh,39.09
2023-05-18T02:53:00,mfh,39.30
2023-05-18T02:54:00,mfh,39.59
2023-05-18T02:55:00,mfh,39.70
2023-05-18T02:56:00,mfh,39.48
2023-05-18T02:57:00,mfh,40.14
2023-05-18T02:58:00,mfh,39.49
2023-05-18T02:59:00,mfh,39.45
2023-05-18T03:00:00,mfh,39.42
2023-05-18T03:01:00,mfh,38.98
2023-05-18T03:02:00,mfh,38.78
2023-05-18T03:03:00,mfh,38.78
2023-05-18T03:04:00,mfh,39.47
2023-05-18T03:05:00,mfh,39.57
2023-05-18T03:06:00,mfh,39.68
2023-05-18T03:07:00,mfh,40.26
2023-05-18T03:08:00,mfh,39.64
2023-05-18T03:09:00,mfh,38.99
2023-05-18T03:10:00,mfh,38.97
2023-05-18T03:11:00,mfh,40.27
2023-05-18T03:12:00,mfh,41.21
2023-05-18T03:13:00,mfh,41.37
2023-05-18T03:14:00,mfh,41.34
2023-05-18T03:15:00,mfh,41.38
2023-05-18T03:16:00,mfh,41.41
2023-05-18T03:17:00,mfh,41.34
2023-05-18T03:18:00,mfh,39.63
2023-05-18T03:19:00,mfh,38.92
2023-05-18T03:20:00,mfh,38.97
2023-05-18T03:21:00,mfh,39.65
2023-05-18T03:22:00,mfh,39.70
2023-05-18T03:23:00,mfh,39.83
2023-05-18T03:24:00,mfh,39.82
2023-05-18T03:25:00,mfh,39.63
2023-05-18T03:26:00,mfh,39.71
2023-05-18T03:27:00,mfh,39.71
2023-05-18T03:28:00,mfh,39.66
2023-05-18T03:29:00,mfh,39.47
2023-05-18T03:30:00,mfh,38.77
2023-05-18T03:31:00,mfh,39.60
2023-05-18T03:32:00,mfh,39.56
2023-05-18T03:33:00,mfh,39.58
2023-05-18T03:34:00,mfh,39.58
2023-05-18T03:35:00,mfh,39.58
2023-05-18T03:36:00,mfh,39.54
2023-05-18T03:37:00,mfh,40.02
2023-05-18T03:38:00,mfh,38.87
2023-05-18T03:39:00,mfh,38.91
2023-05-18T03:40:00,mfh,39.62
2023-05-18T03:41:00,mfh,39.70
2023-05-18T03:42:00,mfh,39.67
2023-05-18T03:43:00,mfh,39.63
2023-05-18T03:44:00,mfh,39.84
2023-05-18T03:45:00,mfh,39.59
2023-05-18T03:46:00,mfh,38.89
2023-05-18T03:47:00,mfh,38.89
2023-05-18T03:48:00,mfh,38.96
2023-05-18T03:49:00,mfh,39.60
2023-05-18T03:50:00,mfh,39.85
2023-05-18T03:51:00,mfh,39.51
2023-05-18T03:52:00,mfh,39.61
2023-05-18T03:53:00,mfh,39.69
2023-05-18T03:54:00,mfh,41.01
2023-05-18T03:55:00,mfh,39.00
2023-05-18T03:56:00,mfh,38.89
2023-05-18T03:57:00,mfh,38.97
2023-05-18T03:58:00,mfh,40.40
2023-05-18T03:59:00,mfh,39.79
2023-05-18T04:00:00,mfh,39.91
2023-05-18T04:01:00,mfh,39.81
2023-05-18T04:02:00,mfh,40.81
2023-05-18T04:03:00,mfh,40.89
2023-05-18T04:04:00,mfh,40.19
2023-05-18T04:05:00,mfh,40.17
2023-05-18T04:06:00,mfh,40.21
2023-05-18T04:07:00,mfh,41.12
2023-05-18T04:08:00,mfh,41.56
2023-05-18T04:09:00,mfh,41.18
2023-05-18T04:10:00,mfh,42.47
2023-05-18T04:11:00,mfh,42.61
2023-05-18T04:12:00,mfh,42.38
2023-05-18T04:13:00,mfh,41.04
2023-05-18T04:14:00,mfh,40.23
2023-05-18T04:15:00,mfh,40.46
2023-05-18T04:16:00,mfh,40.81
2023-05-18T04:17:00,mfh,41.43
2023-05-18T04:18:00,mfh,41.50
2023-05-18T04:19:00,mfh,41.51
2023-05-18T04:20:00,mfh,42.14
2023-05-18T04:21:00,mfh,42.22
2023-05-18T04:22:00,mfh,42.35
2023-05-18T04:23:00,mfh,41.40
2023-05-18T04:24:00,mfh,42.34
2023-05-18T04:25:00,mfh,42.36
2023-05-18T04:26:00,mfh,42.96
2023-05-18T04:27:00,mfh,42.01
2023-05-18T04:28:00,mfh,42.92
2023-05-18T04:29:00,mfh,42.97
2023-05-18T04:30:00,mfh,42.55
2023-05-18T04:31:00,mfh,43.30
2023-05-18T04:32:00,mfh,41.85
2023-05-18T04:33:00,mfh,41.96
2023-05-18T04:34:00,mfh,41.39
2023-05-18T04:35:00,mfh,42.02
2023-05-18T04:36:00,mfh,42.06
2023-05-18T04:37:00,mfh,42.19
2023-05-18T04:38:00,mfh,42.14
2023-05-18T04:39:00,mfh,42.13
2023-05-18T04:40:00,mfh,42.25
2023-05-18T04:41:00,mfh,41.53
2023-05-18T04:42:00,mfh,41.79
2023-05-18T04:43:00,mfh,42.17
2023-05-18T04:44:00,mfh,42.26
2023-05-18T04:45:00,mfh,42.24
2023-05-18T04:46:00,mfh,43.01
2023-05-18T04:47:00,mfh,43.16
2023-05-18T04:48:00,mfh,43.62
2023-05-18T04:49:00,mfh,43.20
2023-05-18T04:50:00,mfh,43.18
2023-05-18T04:51:00,mfh,42.87
2023-05-18T04:52:00,mfh,42.88
2023-05-18T04:53:00,mfh,42.69
2023-05-18T04:54:00,mfh,42.61
2023-05-18T04:55:00,mfh,42.54
2023-05-18T04:56:00,mfh,42.72
2023-05-18T04:57:00,mfh,42.71
2023-05-18T04:58:00,mfh,42.04
2023-05-18T04:59:00,mfh,42.45
2023-05-18T05:00:00,mfh,42.16
2023-05-18T05:01:00,mfh,64.11
2023-05-18T05:02:00,mfh,66.10
2023-05-18T05:03:00,mfh,65.02
2023-05-18T05:04:00,mfh,65.01
2023-05-18T05:05:00,mfh,65.84
2023-05-18T05:06:00,mfh,66.20
2023-05-18T05:07:00,mfh,65.23
2023-05-18T05:08:00,mfh,63.61
2023-05-18T05:09:00,mfh,63.26
2023-05-18T05:10:00,mfh,63.38
2023-05-18T05:11:00,mfh,72.98
2023-05-18T05:12:00,mfh,74.70
2023-05-18T05:13:00,mfh,74.01
2023-05-18T05:14:00,mfh,74.10
2023-05-18T05:15:00,mfh,74.34
2023-05-18T05:16:00,mfh,73.41
2023-05-18T05:17:00,mfh,72.83
2023-05-18T05:18:00,mfh,72.83
2023-05-18T05:19:00,mfh,72.79
2023-05-18T05:20:00,mfh,74.13
2023-05-18T05:21:00,mfh,73.22
2023-05-18T05:22:00,mfh,73.31
2023-05-18T05:23:00,mfh,73.35
2023-05-18T05:24:00,mfh,73.29
2023-05-18T05:25:00,mfh,72.66
2023-05-18T05:26:00,mfh,73.01
2023-05-18T05:27:00,mfh,73.22
2023-05-18T05:28:00,mfh,73.17
2023-05-18T05:29:00,mfh,73.03
2023-05-18T05:30:00,mfh,73.29
2023-05-18T05:31:00,mfh,73.11
2023-05-18T05:32:00,mfh,73.36
2023-05-18T05:33:00,mfh,74.84
2023-05-18T05:34:00,mfh,74.44
2023-05-18T05:35:00,mfh,74.40
2023-05-18T05:36:00,mfh,74.80
2023-05-18T05:37:00,mfh,75.46
2023-05-18T05:38:00,mfh,75.26
2023-05-18T05:39:00,mfh,75.09
2023-05-18T05:40:00,mfh,73.44
2023-05-18T05:41:00,mfh,73.53
2023-05-18T05:42:00,mfh,73.63
2023-05-18T05:43:00,mfh,72.69
2023-05-18T05:44:00,mfh,72.51
2023-05-18T05:45:00,mfh,72.27
2023-05-18T05:46:00,mfh,72.29
2023-05-18T05:47:00,mfh,72.88
2023-05-18T05:48:00,mfh,73.21
2023-05-18T05:49:00,mfh,73.23
2023-05-18T05:50:00,mfh,73.08
2023-05-18T05:51:00,mfh,72.83
2023-05-18T05:52:00,mfh,72.26
2023-05-18T05:53:00,mfh,72.29
2023-05-18T05:54:00,mfh,72.39
2023-05-18T05:55:00,mfh,72.37
2023-05-18T05:56:00,mfh,73.39
2023-05-18T05:57:00,mfh,73.19
2023-05-18T05:58:00,mfh,73.52
2023-05-18T05:59:00,mfh,74.09
2023-05-18T06:00:00,mfh,73.34
2023-05-18T06:01:00,mfh,76.92
2023-05-18T06:02:00,mfh,77.03
2023-05-18T06:03:00,mfh,77.32
2023-05-18T06:04:00,mfh,79.02
2023-05-18T06:05:00,mfh,78.93
2023-05-18T06:06:00,mfh,78.84
2023-05-18T06:07:00,mfh,79.11
2023-05-18T06:08:00,mfh,78.94
2023-05-18T06:09:00,mfh,79.12
2023-05-18T06:10:00,mfh,78.71
2023-05-18T06:11:00,mfh,78.83
2023-05-18T06:12:00,mfh,78.90
2023-05-18T06:13:00,mfh,79.52
2023-05-18T06:14:00,mfh,79.87
2023-05-18T06:15:00,mfh,79.17
2023-05-18T06:16:00,mfh,79.30
2023-05-18T06:17:00,mfh,79.42
2023-05-18T06:18:00,mfh,79.93
2023-05-18T06:19:00,mfh,80.46
2023-05-18T06:20:00,mfh,80.14
2023-05-18T06:21:00,mfh,79.14
2023-05-18T06:22:00,mfh,79.97
2023-05-18T06:23:00,mfh,79.75
2023-05-18T06:24:00,mfh,78.59
2023-05-18T06:25:00,mfh,78.52
2023-05-18T06:26:00,mfh,78.33
2023-05-18T06:27:00,mfh,77.71
2023-05-18T06:28:00,mfh,77.50
2023-05-18T06:29:00,mfh,77.94
2023-05-18T06:30:00,mfh,78.73
2023-05-18T06:31:00,mfh,78.67
2023-05-18T06:32:00,mfh,78.62
2023-05-18T06:33:00,mfh,78.89
2023-05-18T06:34:00,mfh,78.87
2023-05-18T06:35:00,mfh,78.88
2023-05-18T06:36:00,mfh,78.93
2023-05-18T06:37:00,mfh,78.95
2023-05-18T06:38:00,mfh,79.17
2023-05-18T06:39:00,mfh,78.71
2023-05-18T06:40:00,mfh,78.47
2023-05-18T06:41:00,mfh,78.15
2023-05-18T06:42:00,mfh,78.15
2023-05-18T06:43:00,mfh,79.13
2023-05-18T06:44:00,mfh,78.43
2023-05-18T06:45:00,mfh,77.97
2023-05-18T06:46:00,mfh,78.04
2023-05-18T06:47:00,mfh,77.99
2023-05-18T06:48:00,mfh,78.24
2023-05-18T06:49:00,mfh,78.12
2023-05-18T06:50:00,mfh,78.42
2023-05-18T06:51:00,mfh,78.29
2023-05-18T06:52:00,mfh,78.95
2023-05-18T06:53:00,mfh,77.65
2023-05-18T06:54:00,mfh,77.69
2023-05-18T06:55:00,mfh,76.80
2023-05-18T06:56:00,mfh,77.75
2023-05-18T06:57:00,mfh,77.26
2023-05-18T06:58:00,mfh,77.46
2023-05-18T06:59:00,mfh,77.41
2023-05-18T07:00:00,mfh,77.46
2023-05-18T07:01:00,mfh,77.43
2023-05-18T07:02:00,mfh,77.83
2023-05-18T07:03:00,mfh,77.89
2023-05-18T07:04:00,mfh,77.61
2023-05-18T07:05:00,mfh,77.52
2023-05-18T07:06:00,mfh,78.28
2023-05-18T07:07:00,mfh,77.13
2023-05-18T07:08:00,mfh,77.05
2023-05-18T07:09:00,mfh,76.89
2023-05-18T07:10:00,mfh,77.39
2023-05-18T07:11:00,mfh,77.30
2023-05-18T07:12:00,mfh,77.48
2023-05-18T07:13:00,mfh,78.09
2023-05-18T07:14:00,mfh,77.95
2023-05-18T07:15:00,mfh,77.36
2023-05-18T07:16:00,mfh,77.12
2023-05-18T07:17:00,mfh,76.73
2023-05-18T07:18:00,mfh,76.49
2023-05-18T07:19:00,mfh,76.38
2023-05-18T07:20:00,mfh,76.04
2023-05-18T07:21:00,mfh,76.02
2023-05-18T07:22:00,mfh,76.27
2023-05-18T07:23:00,mfh,76.15
2023-05-18T07:24:00,mfh,76.58
2023-05-18T07:25:00,mfh,76.61
2023-05-18T07:26:00,mfh,76.39
2023-05-18T07:27:00,mfh,77.58
2023-05-18T07:28:00,mfh,76.53
2023-05-18T07:29:00,mfh,76.83
2023-05-18T07:30:00,mfh,76.34
2023-05-18T07:31:00,mfh,76.13
2023-05-18T07:32:00,mfh,76.18
2023-05-18T07:33:00,mfh,76.23
2023-05-18T07:34:00,mfh,75.39
2023-05-18T07:35:00,mfh,76.31
2023-05-18T07:36:00,mfh,76.80
2023-05-18T07:37:00,mfh,77.10
2023-05-18T07:38:00,mfh,77.08
2023-05-18T07:39:00,mfh,77.00
2023-05-18T07:40:00,mfh,76.99
2023-05-18T07:41:00,mfh,77.09
2023-05-18T07:42:00,mfh,76.18
2023-05-18T07:43:00,mfh,75.99
2023-05-18T07:44:00,mfh,76.13
2023-05-18T07:45:00,mfh,75.65
2023-05-18T07:46:00,mfh,75.94
2023-05-18T07:47:00,mfh,75.59
2023-05-18T07:48:00,mfh,76.79
2023-05-18T07:49:00,mfh,76.67
2023-05-18T07:50:00,mfh,76.72
2023-05-18T07:51:00,mfh,77.04
2023-05-18T07:52:00,mfh,77.09
2023-05-18T07:53:00,mfh,76.58
2023-05-18T07:54:00,mfh,76.49
2023-05-18T07:55:00,mfh,76.48
2023-05-18T07:56:00,mfh,76.65
2023-05-18T07:57:00,mfh,76.44
2023-05-18T07:58:00,mfh,76.60
2023-05-18T07:59:00,mfh,75.76
2023-05-18T08:00:00,mfh,76.78
2023-05-18T08:01:00,mfh,77.24
2023-05-18T08:02:00,mfh,77.69
2023-05-18T08:03:00,mfh,77.26
2023-05-18T08:04:00,mfh,77.42
2023-05-18T08:05:00,mfh,77.28
2023-05-18T08:06:00,mfh,76.46
2023-05-18T08:07:00,mfh,76.68
2023-05-18T08:08:00,mfh,77.08
2023-05-18T08:09:00,mfh,76.92
2023-05-18T08:10:00,mfh,76.17
2023-05-18T08:11:00,mfh,76.50
2023-05-18T08:12:00,mfh,75.78
2023-05-18T08:13:00,mfh,76.60
2023-05-18T08:14:00,mfh,76.31
2023-05-18T08:15:00,mfh,76.75
2023-05-18T08:16:00,mfh,76.30
2023-05-18T08:17:00,mfh,76.43
2023-05-18T08:18:00,mfh,76.76
2023-05-18T08:19:00,mfh,76.60
2023-05-18T08:20:00,mfh,76.64
2023-05-18T08:21:00,mfh,76.96
2023-05-18T08:22:00,mfh,76.69
2023-05-18T08:23:00,mfh,76.59
2023-05-18T08:24:00,mfh,76.37
2023-05-18T08:25:00,mfh,76.41
2023-05-18T08:26:00,mfh,76.56
2023-05-18T08:27:00,mfh,76.04
2023-05-18T08:28:00,mfh,76.46
2023-05-18T08:29:00,mfh,76.60
2023-05-18T08:30:00,mfh,76.70
2023-05-18T08:31:00,mfh,76.98
2023-05-18T08:32:00,mfh,76.70
2023-05-18T08:33:00,mfh,77.74
2023-05-18T08:34:00,mfh,76.85
2023-05-18T08:35:00,mfh,77.04
2023-05-18T08:36:00,mfh,77.08
2023-05-18T08:37:00,mfh,76.79
2023-05-18T08:38:00,mfh,76.93
2023-05-18T08:39:00,mfh,76.93
2023-05-18T08:40:00,mfh,77.56
2023-05-18T08:41:00,mfh,77.64
2023-05-18T08:42:00,mfh,77.56
2023-05-18T08:43:00,mfh,77.95
2023-05-18T08:44:00,mfh,77.37
2023-05-18T08:45:00,mfh,77.38
2023-05-18T08:46:00,mfh,77.37
2023-05-18T08:47:00,mfh,77.89
2023-05-18T08:48:00,mfh,77.97
2023-05-18T08:49:00,mfh,77.37
2023-05-18T08:50:00,mfh,77.64
2023-05-18T08:51:00,mfh,77.03
2023-05-18T08:52:00,mfh,76.99
2023-05-18T08:53:00,mfh,77.09
2023-05-18T08:54:00,mfh,77.87
2023-05-18T08:55:00,mfh,77.97
2023-05-18T08:56:00,mfh,77.74
2023-05-18T08:57:00,mfh,77.59
2023-05-18T08:58:00,mfh,77.60
2023-05-18T08:59:00,mfh,76.91
2023-05-18T09:00:00,mfh,77.10
2023-05-18T09:01:00,mfh,77.98
2023-05-18T09:02:00,mfh,77.50
2023-05-18T09:03:00,mfh,79.16
2023-05-18T09:04:00,mfh,77.32
2023-05-18T09:05:00,mfh,77.76
2023-05-18T09:06:00,mfh,78.61
2023-05-18T09:07:00,mfh,78.00
2023-05-18T09:08:00,mfh,77.86
2023-05-18T09:09:00,mfh,77.68
2023-05-18T09:10:00,mfh,78.67
2023-05-18T09:11:00,mfh,78.60
2023-05-18T09:12:00,mfh,78.59
2023-05-18T09:13:00,mfh,78.89
2023-05-18T09:14:00,mfh,78.90
2023-05-18T09:15:00,mfh,78.98
2023-05-18T09:16:00,mfh,78.90
2023-05-18T09:17:00,mfh,79.13
2023-05-18T09:18:00,mfh,78.40
2023-05-18T09:19:00,mfh,78.94
2023-05-18T09:20:00,mfh,78.83
2023-05-18T09:21:00,mfh,78.82
2023-05-18T09:22:00,mfh,80.07
2023-05-18T09:23:00,mfh,79.42
2023-05-18T09:24:00,mfh,79.87
2023-05-18T09:25:00,mfh,79.27
2023-05-18T09:26:00,mfh,79.29
2023-05-18T09:27:00,mfh,79.88
2023-05-18T09:28:00,mfh,79.27
2023-05-18T09:29:00,mfh,78.95
2023-05-18T09:30:00,mfh,78.64
2023-05-18T09:31:00,mfh,78.40
2023-05-18T09:32:00,mfh,77.96
2023-05-18T09:33:00,mfh,78.00
2023-05-18T09:34:00,mfh,78.08
2023-05-18T09:35:00,mfh,77.27
2023-05-18T09:36:00,mfh,77.38
2023-05-18T09:37:00,mfh,77.43
2023-05-18T09:38:00,mfh,77.27
2023-05-18T09:39:00,mfh,77.35
2023-05-18T09:40:00,mfh,77.36
2023-05-18T09:41:00,mfh,77.68
2023-05-18T09:42:00,mfh,76.02
2023-05-18T09:43:00,mfh,76.49
2023-05-18T09:44:00,mfh,76.15
2023-05-18T09:45:00,mfh,77.02
2023-05-18T09:46:00,mfh,77.07
2023-05-18T09:47:00,mfh,77.15
2023-05-18T09:48:00,mfh,77.06
2023-05-18T09:49:00,mfh,77.07
2023-05-18T09:50:00,mfh,77.03
2023-05-18T09:51:00,mfh,77.06
2023-05-18T09:52:00,mfh,77.92
2023-05-18T09:53:00,mfh,76.68
2023-05-18T09:54:00,mfh,76.62
2023-05-18T09:55:00,mfh,76.72
2023-05-18T09:56:00,mfh,77.28
2023-05-18T09:57:00,mfh,77.32
2023-05-18T09:58:00,mfh,77.34
2023-05-18T09:59:00,mfh,77.26
2023-05-18T10:00:00,mfh,76.89
2023-05-18T10:01:00,mfh,77.37
2023-05-18T10:02:00,mfh,77.14
2023-05-18T10:03:00,mfh,77.08
2023-05-18T10:04:00,mfh,79.31
2023-05-18T10:05:00,mfh,79.44
2023-05-18T10:06:00,mfh,79.38
2023-05-18T10:07:00,mfh,78.74
2023-05-18T10:08:00,mfh,77.78
2023-05-18T10:09:00,mfh,78.31
2023-05-18T10:10:00,mfh,79.03
2023-05-18T10:11:00,mfh,78.48
2023-05-18T10:12:00,mfh,78.46
2023-05-18T10:13:00,mfh,78.53
2023-05-18T10:14:00,mfh,78.52
2023-05-18T10:15:00,mfh,78.67
2023-05-18T10:16:00,mfh,78.70
2023-05-18T10:17:00,mfh,79.00
2023-05-18T10:18:00,mfh,78.48
2023-05-18T10:19:00,mfh,78.26
2023-05-18T10:20:00,mfh,78.59
2023-05-18T10:21:00,mfh,78.96
2023-05-18T10:22:00,mfh,79.01
2023-05-18T10:23:00,mfh,79.61
2023-05-18T10:24:00,mfh,78.22
2023-05-18T10:25:00,mfh,77.23
2023-05-18T10:26:00,mfh,77.54
2023-05-18T10:27:00,mfh,77.89
2023-05-18T10:28:00,mfh,77.54
2023-05-18T10:29:00,mfh,77.56
2023-05-18T10:30:00,mfh,78.43
2023-05-18T10:31:00,mfh,78.35
2023-05-18T10:32:00,mfh,78.29
2023-05-18T10:33:00,mfh,77.55
2023-05-18T10:34:00,mfh,77.65
2023-05-18T10:35:00,mfh,78.89
2023-05-18T10:36:00,mfh,77.63
2023-05-18T10:37:00,mfh,77.45
2023-05-18T10:38:00,mfh,77.33
2023-05-18T10:39:00,mfh,78.28
2023-05-18T10:40:00,mfh,79.52
2023-05-18T10:41:00,mfh,78.84
2023-05-18T10:42:00,mfh,79.38
2023-05-18T10:43:00,mfh,80.05
2023-05-18T10:44:00,mfh,79.73
2023-05-18T10:45:00,mfh,79.41
2023-05-18T10:46:00,mfh,80.30
2023-05-18T10:47:00,mfh,80.24
2023-05-18T10:48:00,mfh,80.20
2023-05-18T10:49:00,mfh,79.29
2023-05-18T10:50:00,mfh,79.01
2023-05-18T10:51:00,mfh,79.57
2023-05-18T10:52:00,mfh,79.69
2023-05-18T10:53:00,mfh,79.65
2023-05-18T10:54:00,mfh,80.39
2023-05-18T10:55:00,mfh,79.97
2023-05-18T10:56:00,mfh,80.10
2023-05-18T10:57:00,mfh,80.18
2023-05-18T10:58:00,mfh,80.00
2023-05-18T10:59:00,mfh,79.84
2023-05-18T11:00:00,mfh,80.94
2023-05-18T11:01:00,mfh,79.48
2023-05-18T11:02:00,mfh,79.06
2023-05-18T11:03:00,mfh,78.07
2023-05-18T11:04:00,mfh,78.55
2023-05-18T11:05:00,mfh,79.07
2023-05-18T11:06:00,mfh,79.23
2023-05-18T11:07:00,mfh,79.36
2023-05-18T11:08:00,mfh,79.16
2023-05-18T11:09:00,mfh,79.20
2023-05-18T11:10:00,mfh,79.10
2023-05-18T11:11:00,mfh,79.13
2023-05-18T11:12:00,mfh,79.30
2023-05-18T11:13:00,mfh,78.70
2023-05-18T11:14:00,mfh,78.54
2023-05-18T11:15:00,mfh,78.51
2023-05-18T11:16:00,mfh,79.84
2023-05-18T11:17:00,mfh,79.85
2023-05-18T11:18:00,mfh,79.79
2023-05-18T11:19:00,mfh,80.35
2023-05-18T11:20:00,mfh,80.28
2023-05-18T11:21:00,mfh,79.85
2023-05-18T11:22:00,mfh,79.85
2023-05-18T11:23:00,mfh,79.94
2023-05-18T11:24:00,mfh,80.08
2023-05-18T11:25:00,mfh,80.52
2023-05-18T11:26:00,mfh,79.42
2023-05-18T11:27:00,mfh,78.96
2023-05-18T11:28:00,mfh,79.07
2023-05-18T11:29:00,mfh,79.16
2023-05-18T11:30:00,mfh,79.06
2023-05-18T11:31:00,mfh,79.04
2023-05-18T11:32:00,mfh,79.11
2023-05-18T11:33:00,mfh,79.09
2023-05-18T11:34:00,mfh,79.12
2023-05-18T11:35:00,mfh,79.80
2023-05-18T11:36:00,mfh,79.31
2023-05-18T11:37:00,mfh,79.38
2023-05-18T11:38:00,mfh,79.85
2023-05-18T11:39:00,mfh,78.96
2023-05-18T11:40:00,mfh,79.66
2023-05-18T11:41:00,mfh,79.81
2023-05-18T11:42:00,mfh,79.65
2023-05-18T11:43:00,mfh,79.74
2023-05-18T11:44:00,mfh,79.65
2023-05-18T11:45:00,mfh,79.83
2023-05-18T11:46:00,mfh,79.78
2023-05-18T11:47:00,mfh,80.01
2023-05-18T11:48:00,mfh,80.36
2023-05-18T11:49:00,mfh,80.36
2023-05-18T11:50:00,mfh,79.88
2023-05-18T11:51:00,mfh,79.37
2023-05-18T11:52:00,mfh,79.19
2023-05-18T11:53:00,mfh,79.23
2023-05-18T11:54:00,mfh,79.46
2023-05-18T11:55:00,mfh,79.23
2023-05-18T11:56:00,mfh,78.39
2023-05-18T11:57:00,mfh,78.33
2023-05-18T11:58:00,mfh,78.36
2023-05-18T11:59:00,mfh,78.40
2023-05-18T12:00:00,mfh,78.32
2023-05-18T12:01:00,mfh,78.43
2023-05-18T12:02:00,mfh,78.13
2023-05-18T12:03:00,mfh,77.81
2023-05-18T12:04:00,mfh,78.58
2023-05-18T12:05:00,mfh,78.22
2023-05-18T12:06:00,mfh,78.08
2023-05-18T12:07:00,mfh,78.15
2023-05-18T12:08:00,mfh,78.57
2023-05-18T12:09:00,mfh,78.53
2023-05-18T12:10:00,mfh,78.67
2023-05-18T12:11:00,mfh,78.57
2023-05-18T12:12:00,mfh,78.60
2023-05-18T12:13:00,mfh,78.66
2023-05-18T12:14:00,mfh,78.71
2023-05-18T12:15:00,mfh,78.01
2023-05-18T12:16:00,mfh,78.15
2023-05-18T12:17:00,mfh,77.98
2023-05-18T12:18:00,mfh,78.82
2023-05-18T12:19:00,mfh,79.18
2023-05-18T12:20:00,mfh,79.29
2023-05-18T12:21:00,mfh,79.32
2023-05-18T12:22:00,mfh,79.31
2023-05-18T12:23:00,mfh,79.88
2023-05-18T12:24:00,mfh,79.35
2023-05-18T12:25:00,mfh,79.28
2023-05-18T12:26:00,mfh,79.25
2023-05-18T12:27:00,mfh,77.91
2023-05-18T12:28:00,mfh,76.20
2023-05-18T12:29:00,mfh,75.96
2023-05-18T12:30:00,mfh,75.35
2023-05-18T12:31:00,mfh,75.93
2023-05-18T12:32:00,mfh,77.64
2023-05-18T12:33:00,mfh,76.92
2023-05-18T12:34:00,mfh,76.49
2023-05-18T12:35:00,mfh,77.45
2023-05-18T12:36:00,mfh,76.53
2023-05-18T12:37:00,mfh,77.40
2023-05-18T12:38:00,mfh,76.70
2023-05-18T12:39:00,mfh,76.47
2023-05-18T12:40:00,mfh,76.50
2023-05-18T12:41:00,mfh,76.40
2023-05-18T12:42:00,mfh,76.48
2023-05-18T12:43:00,mfh,76.76
2023-05-18T12:44:00,mfh,76.97
2023-05-18T12:45:00,mfh,78.40
2023-05-18T12:46:00,mfh,77.80
2023-05-18T12:47:00,mfh,77.72
2023-05-18T12:48:00,mfh,77.69
2023-05-18T12:49:00,mfh,77.96
2023-05-18T12:50:00,mfh,77.02
2023-05-18T12:51:00,mfh,76.42
2023-05-18T12:52:00,mfh,76.07
2023-05-18T12:53:00,mfh,76.42
2023-05-18T12:54:00,mfh,76.73
2023-05-18T12:55:00,mfh,76.90
2023-05-18T12:56:00,mfh,76.91
2023-05-18T12:57:00,mfh,76.65
2023-05-18T12:58:00,mfh,76.67
2023-05-18T12:59:00,mfh,76.43
2023-05-18T13:00:00,mfh,76.55
2023-05-18T13:01:00,mfh,75.52
2023-05-18T13:02:00,mfh,75.42
2023-05-18T13:03:00,mfh,75.77
2023-05-18T13:04:00,mfh,75.91
2023-05-18T13:05:00,mfh,75.94
2023-05-18T13:06:00,mfh,76.15
2023-05-18T13:07:00,mfh,76.08
2023-05-18T13:08:00,mfh,76.31
2023-05-18T13:09:00,mfh,76.69
2023-05-18T13:10:00,mfh,76.86
2023-05-18T13:11:00,mfh,77.29
2023-05-18T13:12:00,mfh,76.81
2023-05-18T13:13:00,mfh,76.72
2023-05-18T13:14:00,mfh,77.33
2023-05-18T13:15:00,mfh,76.93
2023-05-18T13:16:00,mfh,75.77
2023-05-18T13:17:00,mfh,75.79
2023-05-18T13:18:00,mfh,75.43